EN

Hourly Weather Ladozino

Today, 26 July, Monday

Time Temperature Precipitation Wind Pressure Humidity
00:00 +18°C° 0 mm 2 mps 751 mmHg 57%
01:00 +18°C° 0 mm 2 mps 752 mmHg 58%
02:00 +19°C° 0 mm 1 mps 752 mmHg 59%
03:00 +18°C° 0 mm 1 mps 752 mmHg 61%
04:00 +18°C° 0 mm 1 mps 752 mmHg 62%
05:00 +18°C° 0 mm 1 mps 752 mmHg 64%
06:00 +20°C° 0 mm 1 mps 752 mmHg 61%
07:00 +21°C° 0 mm 1 mps 752 mmHg 57%
08:00 +23°C° 0 mm 1 mps 752 mmHg 54%
09:00 +24°C° 0 mm 2 mps 752 mmHg 49%
10:00 +26°C° 0 mm 2 mps 752 mmHg 45%
11:00 +27°C° 0 mm 2 mps 752 mmHg 40%
12:00 +27°C° 0 mm 1 mps 752 mmHg 42%
13:00 +27°C° 0 mm 1 mps 751 mmHg 44%
14:00 +27°C° 0 mm 1 mps 751 mmHg 45%
15:00 +26°C° 0 mm 1 mps 751 mmHg 49%
16:00 +26°C° 0 mm 1 mps 751 mmHg 52%
17:00 +25°C° 0 mm 1 mps 751 mmHg 55%
18:00 +24°C° 0 mm 1 mps 751 mmHg 57%
19:00 +23°C° 0 mm 1 mps 751 mmHg 60%
20:00 +21°C° 0 mm 1 mps 751 mmHg 62%
21:00 +21°C° 0 mm 1 mps 751 mmHg 64%
22:00 +20°C° 0 mm 1 mps 751 mmHg 66%
23:00 +19°C° 0 mm 1 mps 752 mmHg 68%

Tomorrow, 27 July, Tuesday

Time Temperature Precipitation Wind Pressure Humidity
00:00 +19°C° 0 mm 1 mps 752 mmHg 68%
01:00 +19°C° 0 mm 1 mps 752 mmHg 68%
02:00 +19°C° 0 mm 1 mps 752 mmHg 68%
03:00 +19°C° 0 mm 1 mps 752 mmHg 70%
04:00 +19°C° 0 mm 1 mps 752 mmHg 72%
05:00 +19°C° 0 mm 1 mps 752 mmHg 74%
06:00 +21°C° 0 mm 1 mps 752 mmHg 68%
07:00 +23°C° 0 mm 1 mps 752 mmHg 63%
08:00 +24°C° 0 mm 1 mps 751 mmHg 58%
09:00 +26°C° 0 mm 1 mps 751 mmHg 53%
10:00 +27°C° 0 mm 1 mps 751 mmHg 49%
11:00 +28°C° 0 mm 2 mps 751 mmHg 45%
12:00 +28°C° 0.2 mm 2 mps 751 mmHg 48%
13:00 +28°C° 0.2 mm 2 mps 750 mmHg 50%
14:00 +27°C° 0.2 mm 2 mps 750 mmHg 53%
15:00 +25°C° 0.6 mm 2 mps 750 mmHg 63%
16:00 +23°C° 0.6 mm 2 mps 750 mmHg 72%
17:00 +21°C° 0.6 mm 2 mps 750 mmHg 82%
18:00 +20°C° 0.5 mm 2 mps 749 mmHg 84%
19:00 +19°C° 0.5 mm 2 mps 749 mmHg 87%
20:00 +18°C° 0.5 mm 2 mps 749 mmHg 90%
21:00 +18°C° 0 mm 2 mps 749 mmHg 90%
22:00 +18°C° 0 mm 2 mps 749 mmHg 90%
23:00 +17°C° 0 mm 2 mps 749 mmHg 90%

Day after tomorrow, 28 July, Wednesday

Time Temperature Precipitation Wind Pressure Humidity
00:00 +17°C° 0 mm 2 mps 748 mmHg 91%
01:00 +17°C° 0 mm 2 mps 748 mmHg 91%
02:00 +16°C° 0 mm 1 mps 748 mmHg 91%
03:00 +18°C° 0 mm 1 mps 748 mmHg 91%
04:00 +18°C° 0 mm 1 mps 747 mmHg 91%
05:00 +18°C° 0 mm 1 mps 747 mmHg 92%
06:00 +19°C° 0 mm 2 mps 747 mmHg 85%
07:00 +21°C° 0 mm 2 mps 747 mmHg 78%
08:00 +22°C° 0 mm 3 mps 747 mmHg 72%
09:00 +22°C° 0.2 mm 3 mps 746 mmHg 75%
10:00 +21°C° 0.2 mm 3 mps 746 mmHg 78%
11:00 +20°C° 0.2 mm 4 mps 746 mmHg 81%
12:00 +19°C° 1 mm 4 mps 745 mmHg 86%
13:00 +19°C° 1 mm 4 mps 745 mmHg 90%
14:00 +18°C° 1 mm 4 mps 744 mmHg 95%
15:00 +18°C° 0.3 mm 4 mps 744 mmHg 95%
16:00 +18°C° 0.3 mm 4 mps 743 mmHg 95%
17:00 +18°C° 0.3 mm 3 mps 743 mmHg 95%
18:00 +18°C° 0.6 mm 3 mps 742 mmHg 96%
19:00 +18°C° 0.6 mm 3 mps 742 mmHg 97%
20:00 +18°C° 0.6 mm 3 mps 741 mmHg 98%
21:00 +18°C° 0 mm 2 mps 741 mmHg 98%
22:00 +18°C° 0 mm 2 mps 741 mmHg 98%
23:00 +18°C° 0 mm 2 mps 740 mmHg 99%

29 July, Thursday

Time Temperature Precipitation Wind Pressure Humidity
00:00 +18°C° 0.1 mm 2 mps 740 mmHg 98%
01:00 +18°C° 0.1 mm 3 mps 740 mmHg 98%
02:00 +18°C° 0.1 mm 3 mps 740 mmHg 97%
03:00 +18°C° 0.2 mm 4 mps 740 mmHg 97%
04:00 +18°C° 0.2 mm 4 mps 740 mmHg 96%
05:00 +18°C° 0.2 mm 4 mps 740 mmHg 96%
06:00 +19°C° 0 mm 5 mps 740 mmHg 92%
07:00 +19°C° 0 mm 5 mps 740 mmHg 89%
08:00 +20°C° 0 mm 5 mps 740 mmHg 85%
09:00 +22°C° 0 mm 5 mps 740 mmHg 76%
10:00 +23°C° 0 mm 5 mps 741 mmHg 67%
11:00 +26°C° 0 mm 5 mps 741 mmHg 58%
12:00 +27°C° 0 mm 5 mps 741 mmHg 52%
13:00 +28°C° 0 mm 6 mps 740 mmHg 46%
14:00 +29°C° 0 mm 6 mps 740 mmHg 40%
15:00 +28°C° 0 mm 6 mps 740 mmHg 42%
16:00 +28°C° 0 mm 5 mps 740 mmHg 43%
17:00 +28°C° 0 mm 5 mps 740 mmHg 45%
18:00 +25°C° 0 mm 4 mps 740 mmHg 53%
19:00 +22°C° 0 mm 3 mps 740 mmHg 61%
20:00 +20°C° 0 mm 2 mps 741 mmHg 69%
21:00 +20°C° 0 mm 3 mps 741 mmHg 69%
22:00 +20°C° 0 mm 3 mps 741 mmHg 68%
23:00 +19°C° 0 mm 3 mps 741 mmHg 68%

30 July, Friday

Time Temperature Precipitation Wind Pressure Humidity
00:00 +19°C° 0 mm 3 mps 741 mmHg 70%
01:00 +18°C° 0 mm 3 mps 742 mmHg 72%
02:00 +18°C° 0 mm 2 mps 742 mmHg 75%
03:00 +17°C° 0 mm 2 mps 742 mmHg 77%
04:00 +17°C° 0 mm 2 mps 742 mmHg 79%
05:00 +17°C° 0 mm 2 mps 742 mmHg 82%
06:00 +19°C° 0 mm 2 mps 742 mmHg 74%
07:00 +21°C° 0 mm 3 mps 743 mmHg 66%
08:00 +24°C° 0 mm 3 mps 743 mmHg 58%
09:00 +25°C° 0 mm 3 mps 743 mmHg 53%
10:00 +26°C° 0 mm 4 mps 743 mmHg 49%
11:00 +28°C° 0 mm 4 mps 743 mmHg 44%
12:00 +28°C° 0 mm 4 mps 742 mmHg 42%
13:00 +29°C° 0 mm 4 mps 742 mmHg 40%
14:00 +29°C° 0 mm 4 mps 742 mmHg 38%
15:00 +28°C° 0 mm 3 mps 742 mmHg 43%
16:00 +27°C° 0 mm 3 mps 742 mmHg 48%
17:00 +27°C° 0 mm 2 mps 742 mmHg 53%
18:00 +25°C° 0 mm 2 mps 742 mmHg 58%
19:00 +23°C° 0 mm 2 mps 742 mmHg 64%
20:00 +22°C° 0 mm 1 mps 742 mmHg 69%
21:00 +21°C° 0 mm 1 mps 741 mmHg 72%
22:00 +20°C° 0 mm 1 mps 741 mmHg 75%
23:00 +20°C° 0 mm 1 mps 741 mmHg 78%

31 July, Saturday

Time Temperature Precipitation Wind Pressure Humidity
00:00 +18°C° 0 mm 2 mps 741 mmHg 81%
01:00 +18°C° 0 mm 2 mps 741 mmHg 85%
02:00 +17°C° 0 mm 2 mps 741 mmHg 89%
03:00 +18°C° 0 mm 2 mps 741 mmHg 89%
04:00 +18°C° 0 mm 2 mps 740 mmHg 89%
05:00 +18°C° 0 mm 2 mps 740 mmHg 90%
06:00 +21°C° 0 mm 2 mps 740 mmHg 81%
07:00 +24°C° 0 mm 3 mps 739 mmHg 72%
08:00 +26°C° 0 mm 3 mps 739 mmHg 63%
09:00 +27°C° 0.2 mm 3 mps 739 mmHg 59%
10:00 +28°C° 0.2 mm 4 mps 739 mmHg 55%
11:00 +29°C° 0.2 mm 4 mps 739 mmHg 51%
12:00 +29°C° 0.1 mm 4 mps 739 mmHg 54%
13:00 +28°C° 0.1 mm 4 mps 738 mmHg 57%
14:00 +27°C° 0.1 mm 4 mps 738 mmHg 59%
15:00 +25°C° 1.4 mm 3 mps 738 mmHg 71%
16:00 +22°C° 1.4 mm 3 mps 738 mmHg 84%
17:00 +20°C° 1.4 mm 2 mps 739 mmHg 96%
18:00 +20°C° 0.1 mm 2 mps 739 mmHg 96%
19:00 +19°C° 0.1 mm 2 mps 739 mmHg 96%
20:00 +19°C° 0.1 mm 2 mps 739 mmHg 97%
21:00 +18°C° 0 mm 2 mps 739 mmHg 96%
22:00 +18°C° 0 mm 3 mps 739 mmHg 95%
23:00 +18°C° 0 mm 3 mps 739 mmHg 94%
Show more